Location: Dentlein
(49.1477°N, 10.4231°E)
Time: 03:28:32
(UTC+00:00)

Cosmos 1825 - Pass Details

Date: 23 May 2024
Orbit: 439 x 442 km, 82.5° (Epoch: 19 June)

Event Time Altitude Azimuth Distance (km) Brightness Sun altitude
Exits shadow 02:36:04 - 185° (S) 2,152 4.9 -7.2°
Reaches altitude 10° 02:37:28 10° 184° (S) 1,561 4.2 -7.0°
Maximum altitude 02:40:52 78° 99° (E) 462 2.0 -6.6°
Drops below altitude 10° 02:44:18 10° 12° (NNE) 1,581 5.6 -6.2°
Sets 02:46:23 0° 11° (NNE) 2,460 6.6 -5.9°
